COSMOS 2251 DEB, 34141

Orbit data source: Space-Track

COSMOS 2251 DEB, 34141 is space debris in LEO originally from a launch on Wed, 16 Jun 1993 UTC launched from the Plesetsk Missile And Space Complex (PKMTR). The debris from Iridium 33, an American commercial communications satellite, has been tracked extensively since its accidental collision with the defunct Russian satellite Cosmos 2251 in 2009. This event, occurring at high speed in low Earth orbit (LEO), generated thousands of pieces of space debris, significantly increasing the risk of further collisions. The Iridium 33 debris cloud has impacted space traffic management and orbital debris mitigation strategies, making it a subject of ongoing study in space situational awareness.

Loading next visibility...
Identifier
34141, 1993-036LN
Orbit
LEO
Country
Flag of CISCIS
Related business
Manufacturer
Unknown
Mission
Spacecraft
Bus & Motor
Unknown
Mass
Unknown
Launch date (UTC)
1993-06-16 (33 years ago)
Launch vehicle
Unknown
Launch site
Plesetsk Missile And Space Complex (PKMTR)
Object type
Payload
Rocket body
Debris
Shape & HBR
Unknown shape, 0.1 m
Radar Cross Section
Medium (>0.1 m² and <1 m²)

Expand to show TLE details & history
Last TLE update: 10 hours ago

TLE from 10 hours ago
0 COSMOS 2251 DEB
1 34141U 93036LN  26228.64145237  .00002041  00000-0  50444-3 0  9993
2 34141  74.0072 283.8549 0053162 310.5730 207.4127 14.51878601912747
Epoch: 2026-08-16T15:23Z
TLE epoch observation values (Epoch: 2026-08-16T15:23:41.484Z)
Latitude
21.4038°
Longitude
-98.51885°
Altitude
755.397 km
Speed
7.461 km/s
True Right ascension
06h 29m 45s
True Declination
21° 17' 14"
Sunlit
Object was in daylight at epoch
Visualization orbit readout
Latitude
Unknown
Longitude
Unknown
Altitude
Unknown
Speed
Unknown
Apparent Right ascension
Unknown
Apparent Declination
Unknown
Sunlit
N/A
Visualization observer readout
Local Sidereal Time
16:22:41
Azimuth
Unknown
Elevation
Unknown
Doppler factor
Unknown
Orbital elements
Apogee altitude
754.848 km
Perigee altitude
679.408 km
Semi-major axis
7,095.265 km
Eccentricity
0.00532
Inclination
74.0072°
RAAN
283.8549°
Arg. of periapsis
310.573°
True anomaly
207.13388°
Mean anomaly
207.4127°
Eccentric anomaly
207.27312°
Mean motion
3.63153 °/min
Orbital period
99.13 mins
BSTAR
0.00050444

Documentation

Showing up to 5 results
|